This demonstration page uses our WeatherBlox Daily Observations layout. Learn more.

Left ArrowRight Arrow

39.01783, -85.05884

Hourly Observations for May 11, 2019

Temp ( °F °C ) Dew Point ( °F °C ) Humidity (%) Winds ( mph kmh ) Pressure ( in mb ) Visibility ( mi km ) Precip ( " mm )
12:04 am 00:04 Cloudy 51 10.6 44 6.7 77 77 N 7 11 30.16 1021 10 16 0.00 0.00
12:52 am 00:52 Cloudy 51 10.6 43 6.1 74 74 N 9 15 30.13 1020 10 16 0.00 0.00
1:52 am 01:52 Mostly Cloudy 50 10 42 5.6 74 74 N 10 17 30.11 1020 10 16 0.00 0.00
1:55 am 01:55 Partly Cloudy 50 10 42 5.6 74 74 NNE 7 11 30.14 1021 10 16 0.00 0.00
2:52 am 02:52 Mostly Clear 50 10 42 5.6 74 74 ENE 8 13 30.09 1019 10 16 0.00 0.00
3:52 am 03:52 Mostly Clear 49 9.4 42 5.6 77 77 NE 8 13 30.07 1018 10 16 0.00 0.00
4:52 am 04:52 Mostly Clear 49 9.4 42 5.6 77 77 ENE 7 11 30.08 1019 10 16 0.00 0.00
5:52 am 05:52 Partly Cloudy 48 8.9 42 5.6 80 80 NE 9 15 30.06 1018 10 16 0.00 0.00
6:52 am 06:52 Mostly Sunny 47 8.3 42 5.6 83 83 E 3 6 30.07 1018 10 16 0.00 0.00
7:52 am 07:52 Partly Cloudy 51 10.6 42 5.6 71 71 ENE 13 20 30.06 1018 10 16 0.00 0.00
8:52 am 08:52 Partly Cloudy 53 11.7 42 5.6 66 66 ENE 15 24 30.06 1018 10 16 0.00 0.00
9:05 am 09:05 Mostly Cloudy 53 11.7 43 6.1 69 69 E 9 15 30.07 1018 10 16 0.00 0.00
9:52 am 09:52 Partly Cloudy 56 13.3 44 6.7 65 65 NE 13 20 30.04 1017 10 16 0.00 0.00
10:52 am 10:52 Mostly Cloudy 57 13.9 46 7.8 67 67 E 12 19 30.02 1017 10 16 0.00 0.00
11:52 am 11:52 Partly Cloudy 59 15 47 8.3 64 64 E 7 11 30.01 1016 10 16 0.00 0.00
12:52 pm 12:52 Partly Cloudy 62 16.7 48 8.9 60 60 ENE 10 17 29.97 1015 10 16 0.00 0.00
1:52 pm 13:52 Mostly Cloudy 64 17.8 49 9.4 58 58 ENE 8 13 29.93 1014 10 16 0.00 0.00
2:52 pm 14:52 Mostly Cloudy 67 19.4 52 11.1 59 59 NNE 6 9 29.91 1013 10 16 0.00 0.00
3:52 pm 15:52 Cloudy 67 19.4 51 10.6 57 57 NE 9 15 29.88 1012 10 16 0.00 0.00
4:52 pm 16:52 Cloudy 66 18.9 51 10.6 59 59 NE 8 13 29.86 1011 10 16 0.00 0.00
5:52 pm 17:52 Cloudy 66 18.9 51 10.6 59 59 E 9 15 29.83 1010 10 16 0.00 0.00
6:52 pm 18:52 Cloudy 65 18.3 52 11.1 63 63 E 10 17 29.80 1009 10 16 0.00 0.00
7:52 pm 19:52 Cloudy 64 17.8 53 11.7 68 68 E 14 22 29.78 1008 10 16 0.00 0.03
8:52 pm 20:52 Cloudy with Light Rain 62 16.7 54 12.2 75 75 ESE 5 7 29.77 1008 10 16 0.00 0.03
9:18 pm 21:18 Cloudy with Rain 61 16.1 55 12.8 81 81 ENE 7 11 29.76 1008 3 5 0.02 0.51
9:52 pm 21:52 Cloudy with Heavy Rain 60 15.6 56 13.3 86 86 E 12 19 29.77 1008 6 10 0.06 1.52
10:32 pm 22:32 Cloudy with Rain 58 14.4 56 13.3 93 93 N 8 13 29.80 1009 3 4 0.14 3.56
10:52 pm 22:52 Cloudy with Rain 58 14.4 56 13.3 93 93 N 10 17 29.78 1008 3 4 0.17 4.32
11:10 pm 23:10 Cloudy with Rain 58 14.4 56 13.3 93 93 N 14 22 29.79 1009 3 5 0.03 0.76
11:15 pm 23:15 Cloudy with Rain 57 13.9 55 12.8 93 93 N 12 19 29.79 1009 3 4 0.04 1.02
11:29 pm 23:29 Cloudy with Rain 55 12.8 53 11.7 93 93 NNW 12 19 29.79 1009 3 5 0.10 2.54
11:52 pm 23:52 Cloudy with Light Rain 53 11.7 51 10.6 93 93 NNE 18 30 29.77 1008 6 10 0.11 2.79

Powered by AerisWeather